Location: Newark
(27.9675°N, 86.8869°E)
Time: 17:29:42
(UTC+00:00)

deb Explorer IX - Pass Details

Date: 27 October 2019
Orbit: 546 x 1105 km, 38.8° (Epoch: 17 November)

Event Time Altitude Azimuth Distance (km) Brightness Sun altitude
Rises 03:44:28 0° 244° (WSW) 2,697 ? 38.3°
Reaches altitude 10° 03:46:38 10° 246° (WSW) 1,825 ? 38.6°
Maximum altitude 03:50:47 75° 332° (NNW) 606 ? 39.2°
Drops below altitude 10° 03:55:21 10° 58° (ENE) 2,016 ? 39.9°
Sets 03:57:52 0° 60° (ENE) 3,009 ? 40.3°
